DW5057 Weather Reports


Display with metric or nautical units.
time (UTC)temp
F
wind
direction
speed
MPH
gust
MPH
rain 1hr
in
rain 24hr
in
rain mn
in
humidity
%
barometer
mb
20260505082518 58 30 0.0 1.0 0.00 0.00 0.00 89 1012.8
20260505081518 58 243 0.0 1.0 0.00 0.00 0.00 89 1012.9
20260505080518 58 257 0.0 2.0 0.00 0.00 0.00 88 1012.8
20260505075518 59 123 0.0 1.0 0.00 0.00 0.00 87 1012.8
20260505074518 59 209 0.0 1.0 0.00 0.00 0.00 86 1012.8
20260505073518 59 189 0.0 1.0 0.00 0.00 0.00 86 1012.7
20260505072518 59 10 0.0 2.0 0.00 0.00 0.00 86 1012.6
20260505071516 59 192 0.0 2.0 0.00 0.00 0.00 86 1012.6
20260505070516 59 203 1.0 3.0 0.00 0.00 0.00 86 1012.6
20260505065536 60 203 0.0 2.0 0.00 0.00 0.00 85 1012.5
20260505064516 60 193 0.0 2.0 0.00 0.00 0.00 85 1012.4
20260505063516 59 198 0.0 2.0 0.00 0.00 0.00 86 1012.4
20260505062517 59 187 0.0 2.0 0.00 0.00 0.00 87 1012.5
20260505061517 59 241 0.0 2.0 0.00 0.00 0.00 87 1012.6
20260505060517 59 193 0.0 3.0 0.00 0.00 0.00 87 1012.6
20260505055517 59 194 1.0 2.0 0.00 0.00 0.00 87 1012.6
20260505054517 59 197 0.0 2.0 0.00 0.00 0.00 87 1012.6
20260505053518 58 195 1.0 2.0 0.00 0.00 0.00 88 1012.6
20260505052538 58 248 0.0 2.0 0.00 0.00 0.00 88 1012.7
20260505051518 59 114 0.0 2.0 0.00 0.00 0.00 87 1012.8
20260505050518 59 232 0.0 2.0 0.00 0.00 0.00 87 1012.8
20260505041516 57 68 0.0 1.0 0.00 0.00 0.00 92 1012.9
20260505040516 57 230 0.0 2.0 0.00 0.00 0.00 92 1012.8
20260505035536 57 93 0.0 2.0 0.00 0.00 0.00 92 1012.9
20260505034518 57 106 1.0 2.0 0.00 0.00 0.00 91 1012.8
20260505033518 57 114 1.0 3.0 0.00 0.00 0.00 91 1012.7
20260505032558 57 125 1.0 3.0 0.00 0.00 0.00 90 1012.7
20260505031518 57 128 1.0 4.0 0.00 0.00 0.00 90 1012.7
20260505030518 57 132 1.0 4.0 0.00 0.00 0.00 90 1012.8
20260505025519 57 135 1.0 5.0 0.00 0.00 0.00 90 1012.8
20260505024518 57 119 1.0 3.0 0.00 0.00 0.00 90 1012.7
20260505023519 57 132 1.0 4.0 0.00 0.00 0.00 90 1012.8
20260505022516 58 129 1.0 3.0 0.00 0.00 0.00 89 1012.9
20260505021516 58 160 1.0 3.0 0.00 0.00 0.00 89 1012.9
20260505020516 58 134 1.0 3.0 0.00 0.00 0.00 89 1012.9
20260505015517 57 146 1.0 3.0 0.00 0.00 0.00 90 1012.9
20260505014537 57 124 1.0 4.0 0.00 0.00 0.00 90 1012.9
20260505013517 57 111 1.0 3.0 0.00 0.00 0.00 89 1013.0
20260505012517 57 149 1.0 2.0 0.00 0.00 0.00 89 1013.0
20260505011517 57 226 1.0 4.0 0.00 0.00 0.00 89 1012.9
20260505010537 58 143 1.0 3.0 0.00 0.00 0.00 89 1012.8
20260505005517 58 127 1.0 3.0 0.00 0.00 0.00 88 1012.8
20260505004518 58 114 1.0 3.0 0.00 0.00 0.00 88 1012.8
20260505003519 58 131 1.0 4.0 0.00 0.00 0.00 86 1012.9
20260505002518 59 150 1.0 4.0 0.00 0.00 0.00 85 1012.9
20260505001518 59 134 1.0 4.0 0.00 0.00 0.00 85 1012.7
20260505000519 59 161 1.0 4.0 0.00 0.00 0.00 85 1012.6
20260504235518 59 171 1.0 3.0 0.00 0.00 0.00 84 1012.4
20260504234518 59 164 1.0 3.0 0.00 0.00 0.00 84 1012.3
20260504233519 59 171 2.0 4.0 0.00 0.00 0.00 84 1012.3
20260504232557 59 171 2.0 3.0 0.00 0.00 0.00 83 1012.2
20260504231516 60 174 1.0 4.0 0.00 0.00 0.00 83 1012.2
20260504230516 60 174 2.0 5.0 0.00 0.00 0.00 82 1012.2
20260504225516 60 179 2.0 5.0 0.00 0.00 0.00 81 1012.1
20260504224537 61 0.0 0.0 0.00 0.00 0.00 80 1012.1
20260504223516 61 186 2.0 4.0 0.00 0.00 0.00 77 1012.1
20260504222517 62 198 2.0 5.0 0.00 0.00 0.00 75 1012.2
20260504221518 62 0.0 0.0 0.00 0.00 0.00 75 1012.2
20260504220518 62 172 1.0 4.0 0.00 0.00 0.00 76 1012.1
20260504215538 62 168 2.0 4.0 0.00 0.00 0.00 75 1012.1
20260504214538 62 184 1.0 3.0 0.00 0.00 0.00 74 1012.1
20260504213518 63 175 0.0 2.0 0.00 0.00 0.00 74 1012.1
20260504212518 63 238 1.0 3.0 0.00 0.00 0.00 74 1012.2
20260504211538 63 249 0.0 2.0 0.00 0.00 0.00 75 1012.2
20260504210518 63 83 0.0 4.0 0.00 0.00 0.00 76 1012.4
20260504205518 62 256 1.0 4.0 0.00 0.00 0.00 76 1012.4
20260504204518 62 330 1.0 4.0 0.00 0.00 0.00 76 1012.4
20260504203519 63 106 1.0 3.0 0.00 0.00 0.00 75 1012.4
20260504202519 63 325 1.0 4.0 0.00 0.00 0.00 75 1012.5
20260504201516 63 345 1.0 3.0 0.00 0.00 0.00 76 1012.7
20260504200516 63 43 1.0 5.0 0.00 0.00 0.00 76 1012.8
20260504195517 63 266 1.0 4.0 0.00 0.00 0.00 76 1012.9
20260504194516 63 193 1.0 3.0 0.00 0.00 0.00 75 1013.0
20260504193517 63 247 1.0 4.0 0.00 0.00 0.00 75 1013.1
20260504192537 64 203 1.0 3.0 0.00 0.00 0.00 74 1013.3
20260504191517 64 247 1.0 4.0 0.00 0.00 0.00 74 1013.5
20260504190537 64 263 1.0 4.0 0.00 0.00 0.00 75 1013.6
20260504185517 64 256 1.0 6.0 0.00 0.00 0.00 74 1013.7
20260504184517 64 243 1.0 5.0 0.00 0.00 0.00 73 1013.7
20260504183517 64 192 1.0 4.0 0.00 0.00 0.00 73 1013.7
20260504182518 64 248 1.0 5.0 0.00 0.00 0.00 73 1013.9
20260504181538 64 234 1.0 4.0 0.00 0.00 0.00 72 1014.0
20260504180538 64 166 1.0 4.0 0.00 0.00 0.00 72 1014.1
20260504175518 64 63 1.0 4.0 0.00 0.00 0.00 71 1014.2
20260504174515 64 342 2.0 6.0 0.00 0.00 0.00 72 1014.3
20260504173516 65 42 2.0 4.0 0.00 0.00 0.00 71 1014.4
20260504172516 65 48 2.0 5.0 0.00 0.00 0.00 69 1014.6
20260504171556 65 49 1.0 5.0 0.00 0.00 0.00 69 1014.7
20260504170536 65 133 1.0 3.0 0.00 0.00 0.00 69 1014.8
20260504150518 66 7 1.0 3.0 0.00 0.00 0.00 68 1015.6
20260504130517 61 212 1.0 3.0 0.00 0.00 0.00 68 1016.0
20260504110516 55 196 1.0 2.0 0.00 0.00 0.00 78 1016.9
20260504100517 54 201 1.0 2.0 0.00 0.00 0.00 77 1016.7